Weather History for KBTL - April, 2013

Change the Weather History Date:

Monday, April 8, 2013

  Actual Average Record
Temperature  
Mean Temperature 51 °F 45 °F  
Max Temperature 64 °F 57 °F 73 °F (2001)
Min Temperature 38 °F 34 °F 21 °F (1997)
Degree Days  
Heating Degree Days 14 20  
Month to date heating degree days 198 171  
Since 1 July heating degree days 5835 6046  
Cooling Degree Days 0 0  
Month to date cooling degree days 0 0  
Year to date cooling degree days 0 0  
Moisture  
Dew Point 39 °F    
Average Humidity 73    
Maximum Humidity 93    
Minimum Humidity 52    
Precipitation  
Precipitation 0.14 in 0.09 in 0.78 in (2002)
Month to date precipitation 0.15 0.68  
Year to date precipitation 5.42 5.59  
Sea Level Pressure  
Sea Level Pressure 29.87 in    
Wind  
Wind Speed 13 mph (South)    
Max Wind Speed 37 mph    
Max Gust Speed 53 mph    
Visibility 8 miles    
Events Rain    
T = Trace of Precipitation, MM = Missing Value Source: NWS Daily Summary

Daily Weather History Graph

Daily Weather History Graph

Search for Another Location

Airport or City:

Trip Planner

Search our weather history database for the weather conditions in past years. The results will help you decide how hot, cold, wet, or windy it might be!

Date:

Astronomy

Apr. 08, 2013 Rise Set
Actual Time 7:11 AM EDT 8:14 PM EDT
Civil Twilight 6:42 AM EDT 8:43 PM EDT
Nautical Twilight 6:08 AM EDT 9:18 PM EDT
Astronomical Twilight 5:32 AM EDT 9:54 PM EDT
Moon 6:02 AM EDT (4/8) 6:47 PM EDT (4/8)
Length of Visible Light 14h 01m
Length of Day
13h 03m
Waning Crescent, 3% of the Moon is Illuminated
Apr 8
Waning Crescent
Apr 10
New
Apr 18
First Quarter
Apr 25
Full
May 2
Last Quarter

Hourly Weather History & Observations

Time (EDT) Temp. Windchill Dew Point Humidity Pressure Visibility Wind Dir Wind Speed Gust Speed Precip Events Conditions
12:53 AM 39.9 °F 36.7 °F 30.0 °F 68% 30.02 in 10.0 mi ENE 4.6 mph - N/A   Clear
1:53 AM 39.0 °F 33.4 °F 30.0 °F 70% 30.01 in 10.0 mi East 8.1 mph - N/A   Clear
2:53 AM 37.9 °F 32.7 °F 30.0 °F 73% 30.00 in 10.0 mi ESE 6.9 mph - N/A   Clear
3:53 AM 37.9 °F 32.7 °F 30.0 °F 73% 29.99 in 10.0 mi ESE 6.9 mph - N/A   Clear
4:53 AM 37.9 °F 32.7 °F 30.9 °F 76% 29.97 in 10.0 mi ESE 6.9 mph - N/A   Clear
5:53 AM 39.0 °F 34.0 °F 30.9 °F 73% 29.95 in 10.0 mi ESE 6.9 mph - N/A   Clear
6:53 AM 39.9 °F 33.4 °F 32.0 °F 73% 29.92 in 10.0 mi ESE 10.4 mph - N/A   Clear
7:53 AM 41.0 °F 35.2 °F 32.0 °F 70% 29.92 in 10.0 mi SE 9.2 mph - N/A   Clear
8:53 AM 43.0 °F 37.7 °F 33.1 °F 68% 29.89 in 10.0 mi ESE 9.2 mph 19.6 mph N/A   Mostly Cloudy
9:53 AM 44.1 °F 38.1 °F 37.0 °F 76% 29.85 in 5.0 mi SE 11.5 mph - 0.00 in Rain Light Rain
10:53 AM 44.1 °F 37.4 °F 39.9 °F 85% 29.80 in 5.0 mi SE 13.8 mph - 0.04 in   Overcast
11:28 AM 46.4 °F 41.1 °F 42.8 °F 87% 29.78 in 2.0 mi SE 11.5 mph - 0.05 in Rain Rain
11:53 AM 46.0 °F 41.0 °F 43.0 °F 89% 29.79 in 2.0 mi SE 10.4 mph - 0.10 in Rain Heavy Rain
12:04 PM 46.4 °F 41.9 °F 44.6 °F 93% 29.76 in 3.0 mi SSE 9.2 mph - 0.00 in Rain Light Rain
12:16 PM 48.2 °F - 44.6 °F 87% 29.75 in 4.0 mi SE 13.8 mph - 0.00 in   Overcast
12:53 PM 50.0 °F - 46.9 °F 89% 29.75 in 5.0 mi SSE 13.8 mph - 0.00 in   Mostly Cloudy
1:53 PM 54.0 °F - 48.9 °F 83% 29.71 in 7.0 mi South 12.7 mph - 0.00 in   Overcast
2:53 PM 60.1 °F - 52.0 °F 75% 29.68 in 10.0 mi SSW 21.9 mph 27.6 mph N/A   Overcast
3:53 PM 64.0 °F - 48.0 °F 56% 29.70 in 10.0 mi West 34.5 mph 51.8 mph N/A   Mostly Cloudy
4:53 PM 63.0 °F - 45.0 °F 52% 29.73 in 10.0 mi WSW 32.2 mph 44.9 mph N/A   Scattered Clouds
5:53 PM 57.9 °F - 45.0 °F 62% 29.79 in 10.0 mi West 28.8 mph 42.6 mph N/A   Partly Cloudy
6:18 PM 51.8 °F - 42.8 °F 71% 29.81 in 10.0 mi West 26.5 mph 33.4 mph N/A   Mostly Cloudy
6:26 PM 51.8 °F - 42.8 °F 71% 29.81 in 10.0 mi West 24.2 mph 33.4 mph N/A   Scattered Clouds
6:53 PM 48.0 °F - 39.9 °F 74% 29.86 in 10.0 mi West 19.6 mph 29.9 mph N/A   Partly Cloudy
7:14 PM 46.4 °F 40.4 °F 39.2 °F 76% 29.86 in 10.0 mi West 13.8 mph 24.2 mph N/A   Mostly Cloudy
7:22 PM 46.4 °F 39.8 °F 39.2 °F 76% 29.86 in 10.0 mi West 16.1 mph 25.3 mph N/A   Mostly Cloudy
7:53 PM 45.0 °F 37.6 °F 39.0 °F 80% 29.90 in 10.0 mi WNW 17.3 mph 21.9 mph N/A   Overcast
8:46 PM 42.8 °F 36.6 °F 39.2 °F 87% 29.92 in 10.0 mi West 11.5 mph - N/A   Overcast
8:53 PM 43.0 °F 39.5 °F 39.0 °F 86% 29.95 in 10.0 mi WNW 5.8 mph - N/A   Overcast
9:53 PM 42.1 °F 35.7 °F 39.0 °F 89% 29.97 in 10.0 mi NW 11.5 mph - N/A   Overcast
10:53 PM 42.1 °F 37.1 °F 39.0 °F 89% 29.99 in 8.0 mi NNW 8.1 mph - N/A   Overcast
11:53 PM 41.0 °F 36.4 °F 39.0 °F 93% 30.01 in 7.0 mi North 6.9 mph - N/A   Overcast